| time (UTC) | temp C | wind direction | speed KPH | gust KPH | rain 1hr cm | rain 24hr cm | rain mn cm | humidity % | barometer mb |
| 20260505211541 | 24 | 240 | 1.6 | 8.0 | 0.00 | 0.00 | 0.00 | 47 | 1011.9 |
| 20260505210037 | 25 | 273 | 1.6 | 8.0 | 0.00 | 0.00 | 0.00 | 46 | 1011.8 |
| 20260505204546 | 25 | 241 | 0.0 | 9.7 | 0.00 | 0.00 | 0.00 | 45 | 1012.2 |
| 20260505203052 | 26 | 164 | 1.6 | 8.0 | 0.00 | 0.00 | 0.00 | 41 | 1012.4 |
| 20260505201540 | 26 | 300 | 3.2 | 8.0 | 0.00 | 0.00 | 0.00 | 41 | 1012.7 |
| 20260505200038 | 25 | 217 | 1.6 | 6.4 | 0.00 | 0.00 | 0.00 | 42 | 1012.8 |
| 20260505194550 | 24 | 109 | 0.0 | 11.3 | 0.00 | 0.00 | 0.00 | 45 | 1012.9 |
| 20260505193038 | 23 | 0 | 0.0 | 4.8 | 0.00 | 0.00 | 0.00 | 43 | 1013.2 |
| 20260505191551 | 23 | 0 | 0.0 | 6.4 | 0.00 | 0.00 | 0.00 | 44 | 1013.5 |
| 20260505190040 | 24 | 159 | 1.6 | 6.4 | 0.00 | 0.00 | 0.00 | 44 | 1013.6 |
| 20260505184541 | 24 | 0 | 1.6 | 9.7 | 0.00 | 0.00 | 0.00 | 45 | 1013.8 |
| 20260505183040 | 24 | 133 | 1.6 | 9.7 | 0.00 | 0.00 | 0.00 | 46 | 1014.2 |
| 20260505181538 | 23 | 296 | 0.0 | 11.3 | 0.00 | 0.00 | 0.00 | 44 | 1014.5 |
| 20260505180047 | 23 | 184 | 1.6 | 6.4 | 0.00 | 0.00 | 0.00 | 45 | 1014.6 |
| 20260505174542 | 23 | 300 | 1.6 | 6.4 | 0.00 | 0.00 | 0.00 | 47 | 1014.7 |
| 20260505173037 | 23 | 165 | 1.6 | 8.0 | 0.00 | 0.00 | 0.00 | 46 | 1015.1 |
| 20260505171538 | 23 | 163 | 1.6 | 8.0 | 0.00 | 0.00 | 0.00 | 49 | 1015.3 |
| 20260505170037 | 23 | 260 | 0.0 | 8.0 | 0.00 | 0.00 | 0.00 | 51 | 1015.6 |
| 20260505164537 | 23 | 144 | 4.8 | 17.7 | 0.00 | 0.00 | 0.00 | 47 | 1015.7 |
| 20260505163042 | 23 | 184 | 1.6 | 12.9 | 0.00 | 0.00 | 0.00 | 52 | 1016.0 |
| 20260505161538 | 23 | 0 | 1.6 | 6.4 | 0.00 | 0.00 | 0.00 | 52 | 1015.9 |
| 20260505153038 | 22 | 251 | 0.0 | 9.7 | 0.00 | 0.00 | 0.00 | 56 | 1015.7 |
| 20260505151536 | 21 | 147 | 1.6 | 3.2 | 0.00 | 0.00 | 0.00 | 56 | 1015.6 |
| 20260505124543 | 13 | 0 | 0.0 | 1.6 | 0.00 | 0.00 | 0.00 | 81 | 1015.6 |
| 20260505123053 | 12 | 0 | 0.0 | 1.6 | 0.00 | 0.00 | 0.00 | 84 | 1015.6 |
| 20260505121612 | 11 | 0 | 0.0 | 0.0 | 0.00 | 0.00 | 0.00 | 85 | 1015.4 |
| 20260505120037 | 11 | 0 | 0.0 | 0.0 | 0.00 | 0.00 | 0.00 | 84 | 1015.2 |
| 20260505114540 | 11 | 0 | 0.0 | 0.0 | 0.00 | 0.00 | 0.00 | 82 | 1015.1 |
| 20260505113038 | 11 | 0 | 0.0 | 0.0 | 0.00 | 0.00 | 0.00 | 80 | 1014.9 |
| 20260505111540 | 11 | 0 | 0.0 | 0.0 | 0.00 | 0.00 | 0.00 | 78 | 1014.5 |
| 20260505101542 | 12 | 0 | 0.0 | 0.0 | 0.00 | 0.00 | 0.00 | 73 | 1014.5 |
| 20260505100046 | 13 | 0 | 0.0 | 0.0 | 0.00 | 0.00 | 0.00 | 72 | 1014.5 |
| 20260505094541 | 13 | 0 | 0.0 | 0.0 | 0.00 | 0.00 | 0.00 | 70 | 1014.4 |
| 20260505093036 | 14 | 0 | 0.0 | 0.0 | 0.00 | 0.00 | 0.00 | 69 | 1014.4 |
| 20260505091537 | 14 | 0 | 0.0 | 1.6 | 0.00 | 0.00 | 0.00 | 69 | 1014.5 |
| 20260505090053 | 15 | 0 | 0.0 | 1.6 | 0.00 | 0.00 | 0.00 | 67 | 1014.3 |
| 20260505084625 | 15 | 0 | 0.0 | 1.6 | 0.00 | 0.00 | 0.00 | 67 | 1014.2 |
| 20260505083047 | 15 | 0 | 0.0 | 1.6 | 0.00 | 0.00 | 0.00 | 67 | 1014.1 |
| 20260505081542 | 15 | 205 | 0.0 | 1.6 | 0.00 | 0.00 | 0.00 | 66 | 1014.2 |
| 20260505080045 | 15 | 0 | 0.0 | 1.6 | 0.00 | 0.00 | 0.00 | 67 | 1014.1 |
| 20260505074534 | 15 | 0 | 0.0 | 1.6 | 0.00 | 0.00 | 0.00 | 66 | 1013.9 |
| 20260505073050 | 15 | 0 | 0.0 | 1.6 | 0.00 | 0.00 | 0.00 | 65 | 1014.1 |
| 20260505071543 | 16 | 0 | 0.0 | 4.8 | 0.00 | 0.00 | 0.00 | 65 | 1014.2 |
| 20260505070038 | 16 | 0 | 0.0 | 0.0 | 0.00 | 0.00 | 0.00 | 65 | 1014.1 |
| 20260505064537 | 16 | 0 | 0.0 | 0.0 | 0.00 | 0.00 | 0.00 | 66 | 1014.3 |
| 20260505063046 | 16 | 0 | 0.0 | 0.0 | 0.00 | 0.00 | 0.00 | 64 | 1014.2 |
| 20260505061541 | 16 | 0 | 0.0 | 1.6 | 0.00 | 0.00 | 0.00 | 64 | 1014.2 |
| 20260505060039 | 17 | 0 | 0.0 | 1.6 | 0.00 | 0.00 | 0.00 | 64 | 1014.2 |
| 20260505054558 | 17 | 0 | 0.0 | 1.6 | 0.00 | 0.00 | 0.00 | 62 | 1014.2 |
| 20260505053045 | 17 | 0 | 0.0 | 1.6 | 0.00 | 0.00 | 0.00 | 61 | 1014.3 |
| 20260505051542 | 17 | 0 | 0.0 | 4.8 | 0.00 | 0.00 | 0.00 | 61 | 1014.1 |
| 20260505041548 | 17 | 0 | 0.0 | 0.0 | 0.00 | 0.00 | 0.00 | 61 | 1013.7 |
| 20260505040042 | 17 | 0 | 0.0 | 0.0 | 0.00 | 0.00 | 0.00 | 60 | 1013.9 |
| 20260505034537 | 18 | 0 | 0.0 | 1.6 | 0.00 | 0.00 | 0.00 | 59 | 1013.8 |
| 20260505033038 | 18 | 0 | 0.0 | 1.6 | 0.00 | 0.00 | 0.00 | 59 | 1013.8 |
| 20260505031541 | 18 | 0 | 0.0 | 0.0 | 0.00 | 0.00 | 0.00 | 58 | 1014.0 |
| 20260505030054 | 19 | 0 | 0.0 | 1.6 | 0.00 | 0.00 | 0.00 | 56 | 1014.0 |
| 20260505024537 | 19 | 0 | 0.0 | 1.6 | 0.00 | 0.00 | 0.00 | 55 | 1014.0 |
| 20260505023037 | 20 | 0 | 0.0 | 1.6 | 0.00 | 0.00 | 0.00 | 54 | 1014.0 |
| 20260505021549 | 20 | 0 | 0.0 | 3.2 | 0.00 | 0.00 | 0.00 | 53 | 1014.0 |
| 20260505020050 | 20 | 186 | 0.0 | 4.8 | 0.00 | 0.00 | 0.00 | 53 | 1014.0 |
| 20260505014540 | 20 | 0 | 0.0 | 3.2 | 0.00 | 0.00 | 0.00 | 53 | 1013.8 |
| 20260505013037 | 21 | 0 | 0.0 | 4.8 | 0.00 | 0.00 | 0.00 | 52 | 1013.8 |
| 20260505011537 | 21 | 0 | 0.0 | 3.2 | 0.00 | 0.00 | 0.00 | 52 | 1013.6 |
| 20260505010059 | 21 | 0 | 0.0 | 4.8 | 0.00 | 0.00 | 0.00 | 53 | 1013.6 |
| 20260505004539 | 21 | 0 | 0.0 | 6.4 | 0.00 | 0.00 | 0.00 | 52 | 1013.5 |
| 20260505003047 | 21 | 0 | 0.0 | 1.6 | 0.00 | 0.00 | 0.00 | 52 | 1013.2 |
| 20260505001540 | 22 | 196 | 0.0 | 3.2 | 0.00 | 0.00 | 0.00 | 53 | 1013.2 |
| 20260505000043 | 22 | 0 | 0.0 | 3.2 | 0.00 | 0.00 | 0.00 | 52 | 1013.2 |
| 20260504234541 | 22 | 0 | 0.0 | 8.0 | 0.00 | 0.00 | 0.00 | 52 | 1013.3 |
| 20260504233045 | 23 | 0 | 0.0 | 1.6 | 0.00 | 0.00 | 0.00 | 50 | 1013.2 |
| 20260504231538 | 23 | 0 | 0.0 | 4.8 | 0.00 | 0.00 | 0.00 | 49 | 1013.1 |
| 20260504230046 | 23 | 0 | 0.0 | 4.8 | 0.00 | 0.00 | 0.00 | 47 | 1013.0 |
| 20260504224550 | 23 | 0 | 1.6 | 6.4 | 0.00 | 0.00 | 0.00 | 47 | 1013.0 |
| 20260504223039 | 23 | 313 | 0.0 | 4.8 | 0.00 | 0.00 | 0.00 | 48 | 1013.1 |
| 20260504221539 | 23 | 123 | 0.0 | 4.8 | 0.00 | 0.00 | 0.00 | 50 | 1013.0 |
| 20260504220040 | 24 | 0 | 0.0 | 6.4 | 0.00 | 0.00 | 0.00 | 50 | 1013.2 |
| 20260504214543 | 24 | 0 | 0.0 | 6.4 | 0.00 | 0.00 | 0.00 | 49 | 1013.1 |
| 20260504213034 | 25 | 172 | 1.6 | 8.0 | 0.00 | 0.00 | 0.00 | 48 | 1013.2 |